Content
SEND FEEDBACK

Daily
Averages
Monthly
Summary
United States of America

CHESTERFIELD, MISSOURI


Home > North America > United States > Missouri
Elevation: 170 meters     Latitude: 38 41N     Longitude: 090 31W

WEATHER
 
SELECT A DAY
Number of Records: 203,439;   Date Range: 1/1/95 - 7/29/14
 
SHARE

PRINT THIS DATA

[ ← Previous Day ]
WEATHER ALMANAC - 1 MAY, 2013
[ Next Day → ]
[ °F ]   °C
Weather ElementAverageHighLow
Temperature23.2 °C28.3 °C (4:51 pm)15 °C (5:51 am)
Dewpoint12.5 °C15 °C (6:51 pm)8.9 °C (12:51 pm)
Humidity53 %81 % (5:51 am)31 % (12:51 pm)
Barometer1016.6 hPa1017.9 hPa (9:51 pm)1013.9 hPa (1:51 am)
Wind Speed11.1 km/h22.2 km/h (4:51 pm)
Wind Gust38.9 km/h (2:51 pm)
Weather ElementAverage
Visibility16.1 km
Wind DirectionESE (117.4 °)

Weather ElementTotal
Precipitation---
Cooling Degree Days3.3 (Base 18.3)
Growing Degree Days11.7 (Base 10)
Averaged from 23 records on 1 May, 2013
WEATHER CONDITIONS BREAKOUT
WIND DIRECTION BREAKOUT
WEATHER BY HOUR - 1 MAY, 2013
[ °F ]   °C
Local TimeTemperatureDewpointHumidityBarometerVisibilityWind DirectionWind SpeedGust SpeedPrecipitationEventsConditions
1:51 AM20 °C12.2 °C61 %1013.9 hPa16.1 kmSouth (170°)9.3 km/hClear
2:51 AM19.4 °C12.8 °C66 %1013.9 hPa16.1 kmSSE (160°)11.1 km/hClear
3:51 AM16.7 °C12.2 °C75 %1014.6 hPa16.1 kmSSE (160°)5.6 km/hClear
4:51 AM15.6 °C12.2 °C80 %1015.2 hPa16.1 kmCalmClear
5:51 AM15 °C11.7 °C81 %1015.9 hPa16.1 kmCalmPartly Cloudy
6:51 AM16.1 °C12.2 °C78 %1016.6 hPa16.1 kmCalmPartly Cloudy
7:51 AM20.6 °C12.8 °C61 %1016.9 hPa16.1 kmSouth (170°)11.1 km/hPartly Cloudy
8:51 AM23.3 °C12.2 °C50 %1016.9 hPa16.1 kmSSE (160°)11.1 km/hPartly Cloudy
9:51 AM25 °C10.6 °C40 %1017.3 hPa16.1 kmSouth (170°)9.3 km/hPartly Cloudy
10:51 AM26.1 °C10 °C36 %1017.3 hPa16.1 kmVariable5.6 km/hScattered Clouds
11:51 AM27.2 °C10 °C34 %1017.3 hPa16.1 kmSSW (200°)14.8 km/hScattered Clouds
12:51 PM27.2 °C8.9 °C31 %1017.3 hPa16.1 kmCalmScattered Clouds
1:51 PM27.8 °C11.7 °C37 %1017.3 hPa16.1 kmSE (140°)16.7 km/h33.3 km/hMostly Cloudy
2:51 PM27.2 °C12.2 °C39 %1017.3 hPa16.1 kmSouth (170°)14.8 km/h38.9 km/hMostly Cloudy
3:51 PM27.8 °C13.3 °C41 %1016.9 hPa16.1 kmESE (120°)16.7 km/h27.8 km/hMostly Cloudy
4:51 PM28.3 °C13.3 °C39 %1016.9 hPa16.1 kmSSE (150°)22.2 km/hMostly Cloudy
5:51 PM27.2 °C14.4 °C45 %1016.6 hPa16.1 kmESE (120°)22.2 km/hMostly Cloudy
6:51 PM26.7 °C15 °C48 %1016.6 hPa16.1 kmESE (120°)18.5 km/hMostly Cloudy
7:51 PM25.6 °C14.4 °C50 %1016.9 hPa16.1 kmSE (130°)16.7 km/hMostly Cloudy
8:51 PM25 °C13.9 °C50 %1017.6 hPa16.1 kmSE (140°)18.5 km/hMostly Cloudy
9:51 PM23.9 °C13.3 °C51 %1017.9 hPa16.1 kmSE (140°)11.1 km/hScattered Clouds
10:51 PM22.8 °C13.9 °C57 %1017.9 hPa16.1 kmSE (140°)11.1 km/hPartly Cloudy
11:51 PM20 °C14.4 °C70 %1017.9 hPa16.1 kmSE (140°)9.3 km/hPartly Cloudy
Hourly data recorded from KSTL, located 0 kilometers away from Chesterfield, Missouri







STORIES FROM OUR PARTNERS